This demonstration page uses our WeatherBlox Daily Observations layout. Learn more.

Left ArrowRight Arrow

44.8408, -93.29828

Hourly Observations for June 29, 2022

Temp ( °F °C ) Dew Point ( °F °C ) Humidity (%) Winds ( mph kmh ) Pressure ( in mb ) Visibility ( mi km ) Precip ( " mm )
12:53 am 00:53 Mostly Clear 65 18.3 50 10 59 59 NNE 5 7 30.12 1020 10 16 0.00 0.00
1:53 am 01:53 Clear 63 17.2 50 10 63 63 N 6 9 30.13 1020 10 16 0.00 0.00
2:53 am 02:53 Clear 62 16.7 51 10.6 67 67 NE 5 7 30.12 1020 10 16 0.00 0.00
3:53 am 03:53 Mostly Clear 61 16.1 51 10.6 70 70 Calm 30.12 1020 10 16 0.00 0.00
4:53 am 04:53 Mostly Clear 61 16.1 50 10 67 67 Calm 30.12 1020 10 16 0.00 0.00
5:53 am 05:53 Mostly Sunny 61 16.1 50 10 67 67 ENE 5 7 30.12 1020 10 16 0.00 0.00
6:53 am 06:53 Mostly Sunny 63 17.2 50 10 63 63 E 8 13 30.13 1020 10 16 0.00 0.00
7:53 am 07:53 Mostly Sunny 66 18.9 49 9.4 54 54 SE 10 17 30.14 1021 10 16 0.00 0.00
8:53 am 08:53 Mostly Sunny 69 20.6 55 12.8 61 61 SSE 7 11 30.14 1021 10 16 0.00 0.00
9:53 am 09:53 Mostly Sunny 73 22.8 54 12.2 51 51 SE 10 17 30.12 1020 10 16 0.00 0.00
10:53 am 10:53 Mostly Sunny 76 24.4 55 12.8 48 48 ESE 12 19 30.09 1019 10 16 0.00 0.00
11:53 am 11:53 Mostly Sunny 80 26.7 54 12.2 41 41 SE 14 22 30.06 1018 10 16 0.00 0.00
12:53 pm 12:53 Mostly Sunny 83 28.3 54 12.2 37 37 SE 14 22 30.03 1017 10 16 0.00 0.00
1:53 pm 13:53 Mostly Sunny 86 30 55 12.8 35 35 SSE 20 31 30.00 1016 10 16 0.00 0.00
2:53 pm 14:53 Mostly Sunny 88 31.1 57 13.9 35 35 SSE 18 30 29.95 1014 10 16 0.00 0.00
3:53 pm 15:53 Partly Cloudy 90 32.2 56 13.3 32 32 S 21 33 29.92 1013 10 16 0.00 0.00
4:53 pm 16:53 Partly Cloudy 92 33.3 58 14.4 32 32 S 17 28 29.89 1012 10 16 0.00 0.00
5:53 pm 17:53 Cloudy 89 31.7 62 16.7 41 41 S 13 20 29.86 1011 10 16 0.00 0.00
6:53 pm 18:53 Mostly Cloudy 89 31.7 65 18.3 45 45 SSE 15 24 29.82 1010 10 16 0.00 0.00
7:53 pm 19:53 Partly Cloudy 91 32.8 60 15.6 35 35 S 18 30 29.80 1009 10 16 0.00 0.00
8:53 pm 20:53 Partly Cloudy 89 31.7 59 15 36 36 S 17 28 29.79 1009 10 16 0.00 0.00
9:53 pm 21:53 Partly Cloudy 88 31.1 58 14.4 36 36 S 16 26 29.80 1009 10 16 0.00 0.00
10:53 pm 22:53 Partly Cloudy 87 30.6 58 14.4 37 37 SSW 17 28 29.79 1009 10 16 0.00 0.00
11:53 pm 23:53 Partly Cloudy 86 30 59 15 40 40 SSW 15 24 29.81 1009 10 16 0.00 0.00

Powered by AerisWeather